Showing default

GESAT GEN 1, 62612

Orbit data source: Space-Track

GESAT GEN 1, 62612 is a French payload satellite in SSO that was launched on Tue, 14 Jan 2025 UTC via an FALCON 9 launch vehicle from the Air Force Western Test Range (AFWTR). Payload-class satellites include a variety of spacecraft equipped with specific instruments for various scientific and technological missions. These include communications satellites like Starlink; space stations such as the ISS; scientific satellites like the Hubble; Earth observation satellites from companies like Planet Labs, Umbra, and HawkEye 360; GPS; miniature CubeSats for education and research; and military/defense satellites.

Loading next visibility...
Identifier
62612, 2025-009D
Orbit
SSO
Country
Flag of FRFR
Related business
Manufacturer
NanoAvionics
Mission
Operational Commercial Earth Obs Sci
Bus & Motor
CUBESAT 16U MP42, Unknown motor
Mass
30 kg wet, 30 kg dry
Launch date (UTC)
2025-01-14 (1 year ago)
Launch vehicle
FALCON 9
Launch site
Air Force Western Test Range (AFWTR)
Object type
Payload
Rocket body
Debris
Shape & HBR
Box + 2 Pan, 0.3 m
Radar Cross Section
0.146 m², Medium (>0.1 m² and < 1m²)

Expand to show TLE details & history
Last TLE update: 7 hours ago

TLE from 7 hours ago
0 GESAT GEN 1
1 62612U 25009D   26126.50880588  .00008896  00000-0  32904-3 0  9994
2 62612  97.4016 208.8167 0002274  95.3684 264.7814 15.27926327 72553
Epoch: 2026-05-06T12:12Z
TLE epoch observation values (Epoch: 2026-05-06T12:12:40.828Z)
Latitude
-0.00008°
Longitude
161.27831°
Altitude
485.256 km
Speed
7.623 km/s
True Right ascension
13h 55m 16s
True Declination
0° 00' 00"
Sunlit
Object was in full shadow at epoch
Visualization orbit readout
Latitude
Unknown
Longitude
Unknown
Altitude
Unknown
Speed
Unknown
Apparent Right ascension
Unknown
Apparent Declination
Unknown
Sunlit
N/A
Visualization observer readout
Local Sidereal Time
03:08:54
Azimuth
Unknown
Elevation
Unknown
Doppler factor
Unknown
Orbital elements
Apogee altitude
480.527 km
Perigee altitude
477.408 km
Semi-major axis
6,857.104 km
Eccentricity
0.00023
Inclination
97.4016°
RAAN
208.8167°
Arg. of periapsis
95.3684°
True anomaly
264.75545°
Mean anomaly
264.7814°
Eccentric anomaly
264.76843°
Mean motion
3.82236 °/min
Orbital period
94.18 mins
BSTAR
0.00032904
Loading maneuver chart data...
Computing Atmospheric mass density...
Loading historical data...
Loading historical data...
Loading historical data...
Loading historical data...
Loading historical data...
Loading historical data...
Loading historical data...

Documentation

Showing up to 5 results
|